TimeEST,TemperatureF,Dew PointF,Humidity,Sea Level PressureIn,VisibilityMPH,Wind Direction,Wind SpeedMPH,Gust SpeedMPH,PrecipitationIn,Events,Conditions,WindDirDegrees,DateUTC
12:15 AM,37.4,21.2,52,30.30,10.0,Calm,Calm,-,N/A,,Clear,0,2013-02-22 05:15:00
12:35 AM,35.6,21.2,56,30.29,10.0,NNE,3.5,-,N/A,,Clear,20,2013-02-22 05:35:00
12:55 AM,37.4,21.2,52,30.31,10.0,North,3.5,-,N/A,,Clear,360,2013-02-22 05:55:00
1:15 AM,37.4,23.0,56,30.31,10.0,North,4.6,-,N/A,,Clear,10,2013-02-22 06:15:00
1:55 AM,37.4,23.0,56,30.32,10.0,NW,3.5,-,N/A,,Clear,310,2013-02-22 06:55:00
2:15 AM,35.6,23.0,60,30.34,10.0,WNW,3.5,-,N/A,,Clear,300,2013-02-22 07:15:00
2:35 AM,35.6,21.2,56,30.35,10.0,NNW,4.6,-,N/A,,Clear,330,2013-02-22 07:35:00
2:55 AM,35.6,21.2,56,30.35,10.0,North,4.6,-,N/A,,Clear,350,2013-02-22 07:55:00
3:15 AM,35.6,21.2,56,30.35,10.0,North,3.5,-,N/A,,Clear,350,2013-02-22 08:15:00
3:35 AM,35.6,21.2,56,30.34,10.0,Calm,Calm,-,N/A,,Clear,0,2013-02-22 08:35:00
3:55 AM,35.6,21.2,56,30.34,10.0,North,4.6,-,N/A,,Clear,350,2013-02-22 08:55:00
4:35 AM,35.6,21.2,56,30.35,10.0,NNW,3.5,-,N/A,,Clear,340,2013-02-22 09:35:00
4:55 AM,35.6,21.2,56,30.37,10.0,Calm,Calm,-,N/A,,Scattered Clouds,0,2013-02-22 09:55:00
5:15 AM,35.6,21.2,56,30.37,10.0,NNW,3.5,-,N/A,,Scattered Clouds,340,2013-02-22 10:15:00
5:35 AM,35.6,21.2,56,30.36,10.0,North,3.5,-,N/A,,Scattered Clouds,350,2013-02-22 10:35:00
5:55 AM,35.6,21.2,56,30.35,10.0,Calm,Calm,-,N/A,,Scattered Clouds,0,2013-02-22 10:55:00
6:15 AM,35.6,23.0,60,30.33,10.0,Calm,Calm,-,N/A,,Scattered Clouds,0,2013-02-22 11:15:00
6:35 AM,35.6,24.8,65,30.32,10.0,Calm,Calm,-,N/A,,Mostly Cloudy,0,2013-02-22 11:35:00
6:55 AM,35.6,24.8,65,30.32,10.0,NE,4.6,-,N/A,,Overcast,40,2013-02-22 11:55:00
7:15 AM,35.6,24.8,65,30.33,10.0,NE,3.5,-,N/A,,Overcast,50,2013-02-22 12:15:00
7:35 AM,35.6,26.6,70,30.34,10.0,NNE,6.9,-,N/A,,Overcast,20,2013-02-22 12:35:00
7:55 AM,35.6,26.6,70,30.34,10.0,NE,10.4,-,N/A,,Overcast,50,2013-02-22 12:55:00
8:15 AM,35.6,26.6,70,30.35,10.0,NE,11.5,-,N/A,,Mostly Cloudy,50,2013-02-22 13:15:00
8:35 AM,35.6,26.6,70,30.34,10.0,NE,10.4,-,N/A,,Overcast,40,2013-02-22 13:35:00
8:55 AM,37.4,28.4,70,30.33,10.0,ENE,11.5,17.3,N/A,,Mostly Cloudy,60,2013-02-22 13:55:00
9:15 AM,37.4,28.4,70,30.32,10.0,NE,10.4,-,N/A,,Mostly Cloudy,50,2013-02-22 14:15:00
9:35 AM,37.4,28.4,70,30.32,10.0,ENE,11.5,-,N/A,,Mostly Cloudy,70,2013-02-22 14:35:00
9:55 AM,37.4,28.4,70,30.32,10.0,NE,15.0,-,N/A,,Overcast,50,2013-02-22 14:55:00
10:15 AM,37.4,26.6,65,30.33,10.0,East,6.9,-,N/A,,Mostly Cloudy,90,2013-02-22 15:15:00
10:35 AM,37.4,26.6,65,30.35,10.0,ESE,5.8,-,N/A,,Overcast,120,2013-02-22 15:35:00
10:55 AM,39.2,28.4,65,30.35,10.0,SE,3.5,-,N/A,,Overcast,140,2013-02-22 15:55:00
11:35 AM,39.2,28.4,65,30.33,10.0,SE,5.8,-,N/A,,Scattered Clouds,130,2013-02-22 16:35:00
11:55 AM,41.0,28.4,61,30.33,10.0,SSW,3.5,-,N/A,,Mostly Cloudy,200,2013-02-22 16:55:00
12:15 PM,42.8,28.4,57,30.33,10.0,South,4.6,-,N/A,,Mostly Cloudy,170,2013-02-22 17:15:00
12:35 PM,42.8,28.4,57,30.32,10.0,South,4.6,-,N/A,,Mostly Cloudy,180,2013-02-22 17:35:00
12:55 PM,44.6,28.4,53,30.30,10.0,SE,5.8,-,N/A,,Overcast,130,2013-02-22 17:55:00
1:15 PM,44.6,28.4,53,30.30,10.0,South,4.6,-,N/A,,Overcast,180,2013-02-22 18:15:00
1:35 PM,44.6,28.4,53,30.29,10.0,SSE,3.5,-,N/A,,Overcast,150,2013-02-22 18:35:00
1:55 PM,44.6,28.4,53,30.29,10.0,Calm,Calm,-,N/A,,Mostly Cloudy,0,2013-02-22 18:55:00
2:15 PM,44.6,30.2,57,30.28,10.0,East,4.6,-,N/A,,Mostly Cloudy,80,2013-02-22 19:15:00
2:35 PM,44.6,30.2,57,30.26,10.0,Calm,Calm,-,N/A,,Overcast,0,2013-02-22 19:35:00
2:55 PM,44.6,30.2,57,30.27,10.0,Calm,Calm,-,N/A,,Overcast,0,2013-02-22 19:55:00
3:15 PM,46.4,32.0,57,30.27,10.0,SE,4.6,-,N/A,,Overcast,140,2013-02-22 20:15:00
3:35 PM,46.4,33.8,62,30.26,10.0,ENE,4.6,-,N/A,,Overcast,70,2013-02-22 20:35:00
3:55 PM,46.4,33.8,62,30.25,10.0,East,4.6,-,N/A,,Overcast,90,2013-02-22 20:55:00
4:15 PM,44.6,35.6,71,30.27,10.0,North,5.8,-,N/A,,Overcast,350,2013-02-22 21:15:00
4:35 PM,44.6,35.6,71,30.26,10.0,North,4.6,-,N/A,,Overcast,10,2013-02-22 21:35:00
4:55 PM,44.6,35.6,71,30.25,10.0,NNE,6.9,-,N/A,,Overcast,30,2013-02-22 21:55:00
5:15 PM,44.6,35.6,71,30.26,10.0,NNE,4.6,-,N/A,,Overcast,30,2013-02-22 22:15:00
5:35 PM,42.8,37.4,81,30.26,10.0,North,3.5,-,N/A,Rain,Rain,10,2013-02-22 22:35:00
5:55 PM,42.8,39.2,87,30.25,10.0,NNE,6.9,-,N/A,,Overcast,30,2013-02-22 22:55:00
6:15 PM,42.8,39.2,87,30.26,10.0,NNE,6.9,-,N/A,,Overcast,30,2013-02-22 23:15:00
6:35 PM,41.0,39.2,93,30.26,7.0,NNE,6.9,-,0.01,Rain,Light Rain,30,2013-02-22 23:35:00
6:55 PM,41.0,39.2,93,30.24,10.0,East,5.8,-,0.01,,Overcast,80,2013-02-22 23:55:00
7:15 PM,41.0,39.2,93,30.23,10.0,ENE,6.9,-,N/A,,Overcast,60,2013-02-23 00:15:00
7:35 PM,41.0,39.2,93,30.22,10.0,ENE,6.9,-,N/A,,Overcast,70,2013-02-23 00:35:00
7:55 PM,41.0,39.2,93,30.22,10.0,NE,5.8,-,N/A,,Overcast,50,2013-02-23 00:55:00
8:15 PM,41.0,39.2,93,30.22,10.0,ENE,3.5,-,N/A,,Overcast,70,2013-02-23 01:15:00
8:35 PM,41.0,39.2,93,30.23,7.0,NNE,6.9,-,N/A,,Overcast,30,2013-02-23 01:35:00
8:55 PM,41.0,39.2,93,30.22,5.0,NE,9.2,-,N/A,Rain,Light Rain,40,2013-02-23 01:55:00
9:15 PM,39.2,39.2,100,30.22,7.0,NE,6.9,-,0.01,Rain,Rain,40,2013-02-23 02:15:00
9:35 PM,39.2,39.2,100,30.21,4.0,NE,4.6,-,0.01,,Drizzle,40,2013-02-23 02:35:00
9:55 PM,39.2,39.2,100,30.20,5.0,ENE,5.8,-,0.02,Rain,Rain,70,2013-02-23 02:55:00
10:15 PM,41.0,39.2,93,30.20,7.0,NE,4.6,-,N/A,,Light Drizzle,50,2013-02-23 03:15:00
10:35 PM,41.0,41.0,100,30.20,7.0,NE,4.6,-,N/A,,Light Drizzle,40,2013-02-23 03:35:00
10:55 PM,41.0,41.0,100,30.20,7.0,North,3.5,-,N/A,Rain,Light Rain,360,2013-02-23 03:55:00
11:15 PM,41.0,41.0,100,30.18,4.0,East,5.8,-,N/A,,Overcast,80,2013-02-23 04:15:00
11:35 PM,41.0,41.0,100,30.17,5.0,NE,4.6,-,0.01,Rain,Light Rain,50,2013-02-23 04:35:00
11:55 PM,42.8,42.8,100,30.16,4.0,NE,4.6,-,0.01,Rain,Light Rain,40,2013-02-23 04:55:00